• In Deutschland
  • Länderverzeichnis
  • Für 7 Tage
  • Wassertemperatur
  • Satellitenkarten
  • Wetterkarte
  • Widgets
  • user-avatar
    Anmelden

    Stündliche Wetter Bie

    Heute, 24 November, Freitag

    Zeit Temperatur Niederschläge Wind Luftdruck Luftfeuchtigkeit
    00:00 +18°C° 1,1 mm 0 m/S 648 mmHg 95%
    01:00 +18°C° 1,1 mm 0 m/S 648 mmHg 96%
    02:00 +18°C° 0,2 mm 0 m/S 648 mmHg 96%
    03:00 +17°C° 0,2 mm 0 m/S 647 mmHg 95%
    04:00 +17°C° 0,2 mm 0 m/S 647 mmHg 95%
    05:00 +18°C° 0,1 mm 0 m/S 648 mmHg 94%
    06:00 +18°C° 0,1 mm 0 m/S 648 mmHg 93%
    07:00 +19°C° 0,1 mm 0 m/S 648 mmHg 93%
    08:00 +22°C° 0,6 mm 1 m/S 649 mmHg 89%
    09:00 +23°C° 0,6 mm 1 m/S 649 mmHg 85%
    10:00 +24°C° 0,6 mm 1 m/S 650 mmHg 81%
    11:00 +26°C° 0,3 mm 1 m/S 650 mmHg 71%
    12:00 +28°C° 0,3 mm 1 m/S 650 mmHg 61%
    13:00 +30°C° 0,3 mm 1 m/S 650 mmHg 51%
    14:00 +29°C° 0,4 mm 1 m/S 649 mmHg 56%
    15:00 +28°C° 0,4 mm 1 m/S 648 mmHg 61%
    16:00 +27°C° 0,4 mm 1 m/S 647 mmHg 66%
    17:00 +25°C° 0,9 mm 1 m/S 647 mmHg 75%
    18:00 +23°C° 0,9 mm 1 m/S 647 mmHg 84%
    19:00 +21°C° 0,9 mm 1 m/S 647 mmHg 93%
    20:00 +20°C° 0,2 mm 1 m/S 647 mmHg 93%
    21:00 +20°C° 0,2 mm 1 m/S 648 mmHg 94%
    22:00 +20°C° 0,2 mm 1 m/S 648 mmHg 95%
    23:00 +20°C° 0,4 mm 1 m/S 648 mmHg 95%

    Morgen, 25 November, Samstag

    Zeit Temperatur Niederschläge Wind Luftdruck Luftfeuchtigkeit
    00:00 +19°C° 0,4 mm 1 m/S 648 mmHg 96%
    01:00 +19°C° 0,4 mm 1 m/S 648 mmHg 97%
    02:00 +19°C° 0,9 mm 1 m/S 647 mmHg 97%
    03:00 +19°C° 0,9 mm 1 m/S 647 mmHg 97%
    04:00 +17°C° 0,9 mm 0 m/S 647 mmHg 97%
    05:00 +17°C° 0,2 mm 0 m/S 647 mmHg 96%
    06:00 +18°C° 0,2 mm 0 m/S 648 mmHg 96%
    07:00 +18°C° 0,2 mm 0 m/S 648 mmHg 95%
    08:00 +20°C° 0,2 mm 0 m/S 649 mmHg 87%
    09:00 +22°C° 0,2 mm 0 m/S 649 mmHg 79%
    10:00 +25°C° 0,2 mm 0 m/S 650 mmHg 71%
    11:00 +26°C° 0,7 mm 0 m/S 650 mmHg 67%
    12:00 +27°C° 0,7 mm 0 m/S 649 mmHg 63%
    13:00 +28°C° 0,7 mm 0 m/S 649 mmHg 58%
    14:00 +26°C° 1,7 mm 0 m/S 648 mmHg 66%
    15:00 +27°C° 1,7 mm 1 m/S 647 mmHg 73%
    16:00 +25°C° 1,7 mm 1 m/S 646 mmHg 80%
    17:00 +24°C° 0,4 mm 1 m/S 646 mmHg 83%
    18:00 +22°C° 0,4 mm 1 m/S 646 mmHg 86%
    19:00 +19°C° 0,4 mm 0 m/S 647 mmHg 89%
    20:00 +19°C° 0,2 mm 0 m/S 647 mmHg 90%
    21:00 +18°C° 0,2 mm 0 m/S 648 mmHg 92%
    22:00 +18°C° 0,2 mm 0 m/S 648 mmHg 93%
    23:00 +20°C° 0,3 mm 1 m/S 648 mmHg 94%

    übermorgen, 26 November, Sonntag

    Zeit Temperatur Niederschläge Wind Luftdruck Luftfeuchtigkeit
    00:00 +19°C° 0,3 mm 1 m/S 647 mmHg 95%
    01:00 +19°C° 0,3 mm 1 m/S 647 mmHg 96%
    02:00 +19°C° 0 mm 1 m/S 647 mmHg 96%
    03:00 +19°C° 0 mm 1 m/S 647 mmHg 97%
    04:00 +18°C° 0 mm 1 m/S 646 mmHg 97%
    05:00 +19°C° 0,2 mm 1 m/S 647 mmHg 96%
    06:00 +20°C° 0,2 mm 1 m/S 648 mmHg 94%
    07:00 +20°C° 0,2 mm 1 m/S 649 mmHg 93%
    08:00 +22°C° 0,5 mm 1 m/S 649 mmHg 87%
    09:00 +24°C° 0,5 mm 1 m/S 650 mmHg 80%
    10:00 +26°C° 0,5 mm 1 m/S 650 mmHg 74%
    11:00 +27°C° 0,7 mm 1 m/S 650 mmHg 70%
    12:00 +28°C° 0,7 mm 1 m/S 649 mmHg 66%
    13:00 +28°C° 0,7 mm 1 m/S 649 mmHg 62%
    14:00 +27°C° 1,4 mm 2 m/S 648 mmHg 70%
    15:00 +25°C° 1,4 mm 2 m/S 647 mmHg 78%
    16:00 +24°C° 1,4 mm 3 m/S 647 mmHg 86%
    17:00 +22°C° 0,6 mm 3 m/S 647 mmHg 89%
    18:00 +21°C° 0,6 mm 3 m/S 648 mmHg 91%
    19:00 +20°C° 0,6 mm 3 m/S 648 mmHg 94%
    20:00 +19°C° 0,1 mm 3 m/S 648 mmHg 95%
    21:00 +19°C° 0,1 mm 3 m/S 649 mmHg 95%
    22:00 +19°C° 0,1 mm 3 m/S 649 mmHg 95%
    23:00 +18°C° 0 mm 3 m/S 649 mmHg 96%

    27 November, Montag

    Zeit Temperatur Niederschläge Wind Luftdruck Luftfeuchtigkeit
    00:00 +18°C° 0 mm 2 m/S 648 mmHg 96%
    01:00 +19°C° 0 mm 1 m/S 648 mmHg 96%
    02:00 +19°C° 0 mm 1 m/S 648 mmHg 96%
    03:00 +19°C° 0 mm 1 m/S 648 mmHg 96%
    04:00 +19°C° 0 mm 1 m/S 648 mmHg 97%
    05:00 +19°C° 0 mm 1 m/S 649 mmHg 95%
    06:00 +20°C° 0 mm 1 m/S 649 mmHg 93%
    07:00 +20°C° 0 mm 1 m/S 650 mmHg 91%
    08:00 +23°C° 0,1 mm 1 m/S 650 mmHg 81%
    09:00 +25°C° 0,1 mm 1 m/S 651 mmHg 71%
    10:00 +27°C° 0,1 mm 2 m/S 651 mmHg 61%
    11:00 +27°C° 1 mm 1 m/S 650 mmHg 64%
    12:00 +27°C° 1 mm 1 m/S 649 mmHg 68%
    13:00 +26°C° 1 mm 1 m/S 648 mmHg 72%
    14:00 +25°C° 1,8 mm 1 m/S 648 mmHg 77%
    15:00 +24°C° 1,8 mm 1 m/S 647 mmHg 82%
    16:00 +23°C° 1,8 mm 1 m/S 647 mmHg 88%
    17:00 +22°C° 0,2 mm 1 m/S 647 mmHg 90%
    18:00 +21°C° 0,2 mm 1 m/S 648 mmHg 91%
    19:00 +20°C° 0,2 mm 1 m/S 648 mmHg 93%
    20:00 +20°C° 0,3 mm 1 m/S 648 mmHg 93%
    21:00 +20°C° 0,3 mm 1 m/S 649 mmHg 93%
    22:00 +20°C° 0,3 mm 1 m/S 649 mmHg 94%
    23:00 +19°C° 0,5 mm 1 m/S 649 mmHg 94%

    28 November, Dienstag

    Zeit Temperatur Niederschläge Wind Luftdruck Luftfeuchtigkeit
    00:00 +19°C° 0,5 mm 1 m/S 648 mmHg 95%
    01:00 +19°C° 0,5 mm 1 m/S 648 mmHg 96%
    02:00 +19°C° 0,3 mm 1 m/S 647 mmHg 96%
    03:00 +18°C° 0,3 mm 1 m/S 647 mmHg 96%
    04:00 +18°C° 0,3 mm 1 m/S 647 mmHg 96%
    05:00 +19°C° 0,1 mm 1 m/S 648 mmHg 95%
    06:00 +19°C° 0,1 mm 1 m/S 648 mmHg 94%
    07:00 +20°C° 0,1 mm 1 m/S 648 mmHg 93%
    08:00 +22°C° 0 mm 1 m/S 649 mmHg 84%
    09:00 +24°C° 0 mm 1 m/S 649 mmHg 76%
    10:00 +24°C° 0 mm 0 m/S 649 mmHg 67%
    11:00 +27°C° 0,1 mm 1 m/S 649 mmHg 61%
    12:00 +29°C° 0,1 mm 1 m/S 648 mmHg 56%
    13:00 +30°C° 0,1 mm 1 m/S 648 mmHg 51%
    14:00 +29°C° 0 mm 1 m/S 648 mmHg 53%
    15:00 +28°C° 0 mm 1 m/S 647 mmHg 56%
    16:00 +28°C° 0 mm 2 m/S 647 mmHg 59%
    17:00 +26°C° 0,4 mm 1 m/S 647 mmHg 66%
    18:00 +24°C° 0,4 mm 1 m/S 647 mmHg 74%
    19:00 +22°C° 0,4 mm 1 m/S 647 mmHg 81%
    20:00 +21°C° 0,8 mm 1 m/S 647 mmHg 83%
    21:00 +21°C° 0,8 mm 1 m/S 647 mmHg 85%
    22:00 +20°C° 0,8 mm 1 m/S 648 mmHg 87%
    23:00 +20°C° 0,2 mm 1 m/S 647 mmHg 89%

    29 November, Mittwoch

    Zeit Temperatur Niederschläge Wind Luftdruck Luftfeuchtigkeit
    00:00 +19°C° 0,2 mm 1 m/S 647 mmHg 91%
    01:00 +19°C° 0,2 mm 1 m/S 646 mmHg 93%
    02:00 +18°C° 0 mm 1 m/S 646 mmHg 94%
    03:00 +18°C° 0 mm 1 m/S 646 mmHg 95%
    04:00 +16°C° 0 mm 0 m/S 646 mmHg 96%
    05:00 +17°C° 0,2 mm 0 m/S 647 mmHg 94%
    06:00 +18°C° 0,2 mm 0 m/S 648 mmHg 91%
    07:00 +19°C° 0,2 mm 0 m/S 649 mmHg 89%
    08:00 +23°C° 0,5 mm 1 m/S 649 mmHg 78%
    09:00 +26°C° 0,5 mm 1 m/S 649 mmHg 68%
    10:00 +28°C° 0,5 mm 1 m/S 650 mmHg 57%
    11:00 +29°C° 0 mm 1 m/S 649 mmHg 52%
    12:00 +31°C° 0 mm 1 m/S 649 mmHg 47%
    13:00 +32°C° 0 mm 1 m/S 648 mmHg 42%
    14:00 +31°C° 0 mm 1 m/S 648 mmHg 45%
    15:00 +28°C° 0 mm 0 m/S 647 mmHg 49%
    16:00 +27°C° 0 mm 0 m/S 647 mmHg 52%
    17:00 +25°C° 0,1 mm 0 m/S 647 mmHg 56%
    18:00 +24°C° 0,1 mm 0 m/S 647 mmHg 60%
    19:00 +24°C° 0,1 mm 1 m/S 647 mmHg 64%
    20:00 +23°C° 0,8 mm 1 m/S 647 mmHg 72%
    21:00 +22°C° 0,8 mm 1 m/S 647 mmHg 79%
    22:00 +21°C° 0,8 mm 1 m/S 648 mmHg 87%
    23:00 +20°C° 0,1 mm 1 m/S 647 mmHg 89%
    Mehr zeigen